Location: ??????
(42.0089°N, 44.3281°E)
Time: 18:36:07
(UTC+00:00)

USA 267 - Pass Details

Date: 06 June 2022
Orbit: 1101 x 1106 km, 123.0° (Epoch: 28 June)

Event Time Altitude Azimuth Distance (km) Brightness Sun altitude
Rises 19:42:03 0° 69° (ENE) 3,920 6.2 -22.7°
Reaches altitude 10° 19:45:01 10° 56° (NE) 2,963 5.7 -22.9°
Maximum altitude 19:50:01 24° 6° (N) 2,100 5.4 -23.2°
Drops below altitude 10° 19:55:00 10° 316° (NW) 2,965 6.4 -23.5°
Sets 19:57:58 0° 303° (WNW) 3,924 6.9 -23.6°
